This demonstration page uses our WeatherBlox Daily Observations layout. Learn more.

Left ArrowRight Arrow

Hourly Observations for August 9, 2018

Temp ( °F °C ) Dew Point ( °F °C ) Humidity (%) Winds ( mph kmh ) Pressure ( in mb ) Visibility ( mi km ) Precip ( " mm )
12:59 am 00:59 Partly Cloudy 81 27.2 70 21.1 69 69 SW 8 13 29.90 1013 10 16 0.00 0.00
1:59 am 01:59 Mostly Cloudy 79 26.1 70 21.1 74 74 WSW 9 15 29.88 1012 10 16 0.00 0.00
2:59 am 02:59 Mostly Cloudy 78 25.6 70 21.1 76 76 WSW 12 19 29.88 1012 10 16 0.00 0.00
3:59 am 03:59 Mostly Cloudy 77 25 69 20.6 77 77 WSW 10 17 29.89 1012 10 16 0.00 0.00
4:59 am 04:59 Mostly Cloudy 76 24.4 69 20.6 79 79 WSW 9 15 29.88 1012 10 16 0.00 0.00
5:59 am 05:59 Mostly Cloudy 75 23.9 69 20.6 82 82 W 8 13 29.88 1012 10 16 0.00 0.00
6:59 am 06:59 Partly Cloudy 75 23.9 69 20.6 82 82 W 9 15 29.89 1012 10 16 0.00 0.00
7:59 am 07:59 Partly Cloudy 76 24.4 69 20.6 79 79 W 9 15 29.90 1012 10 16 0.00 0.00
8:59 am 08:59 Sunny 78 25.6 70 21.1 76 76 W 8 13 29.91 1013 10 16 0.00 0.00
9:59 am 09:59 Partly Cloudy 80 26.7 71 21.7 74 74 W 6 9 29.90 1013 10 16 0.00 0.00
10:59 am 10:59 Partly Cloudy 83 28.3 72 22.2 70 70 W 7 11 29.91 1013 10 16 0.00 0.00
11:59 am 11:59 Partly Cloudy 86 30 70 21.1 59 59 VRB 5 7 29.92 1013 10 16 0.00 0.00
12:59 pm 12:59 Partly Cloudy 88 31.1 71 21.7 57 57 N 6 9 29.92 1013 10 16 0.00 0.00
1:59 pm 13:59 Partly Cloudy 88 31.1 71 21.7 57 57 NNE 8 13 29.91 1013 10 16 0.00 0.00
2:59 pm 14:59 Partly Cloudy 89 31.7 70 21.1 53 53 NNW 5 7 29.90 1013 10 16 0.00 0.00
3:59 pm 15:59 Partly Cloudy 89 31.7 71 21.7 55 55 VRB 6 9 29.88 1012 10 16 0.00 0.00
4:59 pm 16:59 Partly Cloudy 89 31.7 70 21.1 53 53 NE 5 7 29.87 1012 10 16 0.00 0.00
5:59 pm 17:59 Partly Cloudy 87 30.6 72 22.2 61 61 NNE 7 11 29.87 1011 10 16 0.00 0.00
6:59 pm 18:59 Mostly Cloudy 87 30.6 70 21.1 57 57 VRB 5 7 29.87 1012 10 16 0.00 0.00
7:59 pm 19:59 Mostly Cloudy 82 27.8 72 22.2 72 72 VRB 3 6 29.89 1012 9 14 0.00 0.00
8:59 pm 20:59 Mostly Cloudy 81 27.2 72 22.2 74 74 Calm 29.90 1013 10 16 0.00 0.00
9:59 pm 21:59 Mostly Cloudy 78 25.6 73 22.8 85 85 SSW 5 7 29.92 1013 9 14 0.00 0.00
10:59 pm 22:59 Partly Cloudy 78 25.6 74 23.3 87 87 Calm 29.92 1013 8 13 0.00 0.00
11:59 pm 23:59 Partly Cloudy 79 26.1 74 23.3 85 85 Calm 29.92 1013 9 14 0.00 0.00

Powered by AerisWeather